DELTA 1 DEB, 26827

Orbit data source: Space-Track

DELTA 1 DEB, 26827 is space debris in SSO originally from a launch on Thu, 12 Jun 1975 UTC launched from the Air Force Western Test Range (AFWTR). Debris objects in space refer to the collection of defunct objects orbiting the Earth. Examples of debris include non-operational satellites, rocket bodies, and fragments generated from explosions, collisions, or faulty payload assembly.

Loading next visibility...
Identifier
26827, 1975-052KF
Orbit
SSO
Country
Flag of USUS
Related business
Manufacturer
Unknown
Mission
Spacecraft
Bus & Motor
Unknown
Mass
Unknown
Launch date (UTC)
1975-06-12 (51 years ago)
Launch vehicle
Unknown
Launch site
Air Force Western Test Range (AFWTR)
Object type
Payload
Rocket body
Debris
Shape & HBR
Unknown shape, 0.1 m
Radar Cross Section
Small (<0.1 m²)

Expand to show TLE details & history
Last TLE update: 4 days ago

TLE from 4 days ago
0 DELTA 1 DEB
1 26827U 75052KF  26120.78858148  .00000472  00000-0  10482-2 0  9994
2 26827  99.7796  53.7075 0108921 287.2256  99.2948 13.31137238588851
Epoch: 2026-04-30T18:55Z
TLE epoch observation values (Epoch: 2026-04-30T18:55:33.439Z)
Latitude
27.35104°
Longitude
-94.00108°
Altitude
1,159.788 km
Speed
7.269 km/s
True Right ascension
03h 14m 28s
True Declination
27° 13' 06"
Sunlit
Object was in daylight at epoch
Visualization orbit readout
Latitude
Unknown
Longitude
Unknown
Altitude
Unknown
Speed
Unknown
Apparent Right ascension
Unknown
Apparent Declination
Unknown
Sunlit
N/A
Visualization observer readout
Local Sidereal Time
11:21:04
Azimuth
Unknown
Elevation
Unknown
Doppler factor
Unknown
Orbital elements
Apogee altitude
1,221.693 km
Perigee altitude
1,057.921 km
Semi-major axis
7,517.944 km
Eccentricity
0.01089
Inclination
99.7796°
RAAN
53.7075°
Arg. of periapsis
287.2256°
True anomaly
100.52376°
Mean anomaly
99.2948°
Eccentric anomaly
99.90956°
Mean motion
3.32962 °/min
Orbital period
108.12 mins
BSTAR
0.0010482
Loading maneuver chart data...
Computing Atmospheric mass density...
Loading historical data...
Loading historical data...
Loading historical data...
Loading historical data...
Loading historical data...
Loading historical data...
Loading historical data...

Documentation

Showing up to 5 results
|